Lid_Strength_Index
15 18 20 19 18 19 19 19 20 19 17 17 18 18 16 14 16 16 16 15 14 14 12 12 12 11 12 12 12 12 12 11 11 11 12 11 12 11 10 9 8 8 7 7
18 20 17 16 16 17 18 22 22 18 17 17 19 19 16 16 16 15 15 15 14 14 14 13 12 12 12 12 12 12 11 11 11 11 11 11 12 11 10 9 9 8 7 7
19 17 15 16 17 18 19 21 22 20 18 18 20 20 19 16 15 14 14 14 15 14 14 13 13 12 12 13 13 12 11 11 11 11 12 12 11 11 11 10 10 8 8 8
18 15 16 17 17 17 21 17 17 19 23 25 20 25 19 18 17 15 14 15 15 15 14 14 13 13 13 12 12 12 12 11 12 12 13 13 13 14 12 12 11 10 9 8
19 17 17 19 17 16 19 17 18 20 24 25 24 26 21 18 18 17 16 15 15 15 14 14 13 13 12 12 12 12 12 12 12 12 13 13 14 13 12 11 11 10 9 8
19 16 16 17 16 16 17 20 21 24 28 28 28 26 22 20 18 17 16 15 15 14 14 14 13 13 12 12 12 13 13 13 12 13 13 14 14 14 13 12 12 11 10 8
20 18 16 15 17 16 19 25 27 27 29 26 32 26 20 18 18 17 16 15 15 15 15 15 14 14 13 12 12 13 13 14 13 13 14 14 14 14 14 13 12 11 10 9
26 23 21 15 17 21 20 24 26 30 28 27 30 27 19 17 16 16 16 16 15 15 14 15 14 14 13 13 13 14 14 15 14 14 14 14 13 13 13 12 11 10 9 8
25 23 17 15 15 18 21 25 21 29 34 31 27 24 19 17 20 17 17 16 16 15 15 15 15 14 14 14 15 15 15 15 15 14 14 13 12 12 12 11 10 9 8 7
21 24 21 17 16 17 21 19 24 27 29 31 28 31 22 21 21 22 19 20 18 17 16 16 15 15 15 15 16 16 16 16 15 15 14 12 12 11 11 10 9 9 8 7
21 23 23 18 21 22 21 23 24 24 24 28 30 24 22 22 21 20 20 19 19 19 18 17 16 17 16 16 17 17 16 16 15 14 13 12 12 11 11 10 9 8 7 7
17 21 26 23 19 17 18 21 20 23 26 28 25 23 21 21 25 27 20 18 17 19 19 19 18 18 17 18 18 18 17 17 15 14 13 12 12 12 11 10 9 8 7 6
16 24 27 22 20 19 21 19 19 21 21 27 26 21 21 26 24 20 22 18 16 20 19 20 20 19 19 19 19 19 18 17 15 14 14 13 12 11 10 10 9 7 7 7
13 19 22 22 22 24 23 20 18 19 25 22 22 18 15 14 14 15 17 18 19 20 21 22 21 23 22 21 22 21 19 17 16 15 14 13 12 11 10 9 9 8 7 8
14 22 20 21 21 23 21 22 19 21 20 22 17 21 16 14 14 14 18 17 18 19 21 22 25 24 24 24 23 22 20 18 17 16 16 15 13 11 10 10 9 8 8 8
15 20 23 25 19 18 21 19 19 18 19 20 18 19 14 13 13 16 18 19 19 19 21 22 26 25 24 24 25 23 21 19 17 17 17 15 14 13 12 10 10 9 9 9
16 21 24 24 23 24 23 21 18 22 23 19 23 17 24 17 20 20 18 21 19 18 20 22 23 23 24 26 27 25 23 21 19 19 17 15 14 14 13 12 11 11 10 10
17 19 19 24 28 25 17 17 18 20 19 19 20 19 16 17 17 19 19 19 18 20 22 22 24 27 25 28 29 26 24 21 20 19 17 15 14 14 14 13 13 12 12 12
14 16 20 22 30 22 17 18 19 19 18 16 16 15 17 19 17 15 17 18 18 21 22 23 25 26 27 26 26 26 23 23 20 18 17 15 15 14 14 14 13 13 12 12
15 14 16 26 28 28 18 18 16 16 20 15 15 15 16 17 16 15 15 16 15 16 18 18 18 19 19 19 18 18 22 21 19 18 17 16 15 14 15 14 13 13 12 13
21 19 19 26 24 24 17 16 16 21 16 15 15 14 16 16 14 13 16 15 15 16 17 18 18 18 19 19 18 17 18 19 19 17 16 16 15 14 15 14 14 14 14 14
22 22 22 25 24 25 16 16 17 13 14 14 14 14 15 14 14 14 14 15 15 16 17 17 19 18 19 19 19 18 18 19 18 17 16 17 16 15 15 15 15 15 15 16
21 17 20 19 20 15 15 14 13 14 13 13 14 13 14 15 15 14 15 15 15 16 16 19 19 19 20 20 20 19 19 19 19 19 19 18 17 16 15 16 16 17 16 16
21 19 19 18 16 16 15 13 13 13 13 12 13 13 14 14 14 15 15 15 16 18 18 21 21 21 20 21 20 21 21 20 21 22 20 19 18 17 17 16 16 17 17 17
16 17 19 18 17 16 13 13 12 12 12 13 13 14 13 14 14 14 14 15 15 17 21 22 20 20 20 22 22 23 22 22 19 20 20 19 18 18 17 17 17 16 17 16
18 18 16 16 13 12 10 11 11 12 12 13 14 13 15 14 13 13 15 14 15 17 21 21 20 20 20 22 22 23 23 22 20 20 20 20 19 20 19 18 15 12 13 13